Location: Atherton
(17.2661°S, 145.4859°E)
Time: 23:05:16
(UTC+10:00)

Vanguard 1 - Pass Details

Date: 28 June 2025
Orbit: 649 x 3822 km, 34.2° (Epoch: 17 July)

Event Time Altitude Azimuth Distance (km) Brightness Sun altitude
Rises 14:37:28 0° 327° (NNW) 7,540 15.5 37.6°
Reaches altitude 10° 14:42:54 10° 334° (NNW) 6,739 15.5 36.7°
Maximum altitude 15:04:11 44° 38° (NE) 4,529 13.9 33.2°
Drops below altitude 10° 15:21:30 10° 103° (ESE) 5,665 13.6 30.2°
Sets 15:25:26 0° 109° (ESE) 6,315 13.7 29.5°
